SAS4451 ENTC-EKCH

Flight info

Callsign SAS4451
Flight time N/A
Altitude 38000
Route AMIMO DCT TOPLA/N0442F370 L996 ERNOV
Aircraft A320/M-SDE3FGHIRWY/LB1

Departure

Time 2026-05-08 09:08
Airport Tromsø Airport (ENTC)

Arrival

Time N/A
Airport Copenhagen Kastrup Airport (EKCH)
Time Latitude Longitude Altitude Speed Heading
2026-05-08 08:57 69.68014 18.90971 -46 ft 0 kts 284°
2026-05-08 09:00 69.68012 18.90985 33 ft 2 kts 284°
2026-05-08 09:00 69.68007 18.91039 34 ft 3 kts 283°
2026-05-08 09:01 69.68003 18.91095 36 ft 3 kts 283°
2026-05-08 09:01 69.67997 18.91151 32 ft 3 kts 291°
2026-05-08 09:01 69.67989 18.91203 33 ft 3 kts 306°
2026-05-08 09:01 69.67976 18.91242 33 ft 3 kts 335°
2026-05-08 09:02 69.67963 18.91253 34 ft 1 kts 13°
2026-05-08 09:02 69.67961 18.91252 35 ft 0 kts 13°
2026-05-08 09:04 69.67962 18.91252 35 ft 1 kts 13°
2026-05-08 09:04 69.67999 18.91278 35 ft 11 kts 14°
2026-05-08 09:04 69.68094 18.91341 35 ft 15 kts 12°
2026-05-08 09:04 69.68208 18.91418 34 ft 18 kts 13°
2026-05-08 09:05 69.68344 18.91495 32 ft 21 kts
2026-05-08 09:05 69.68502 18.91533 32 ft 24 kts 13°
2026-05-08 09:05 69.68670 18.91647 31 ft 24 kts 12°
2026-05-08 09:05 69.68772 18.91876 30 ft 20 kts 95°
2026-05-08 09:06 69.68804 18.92223 29 ft 21 kts 18°
2026-05-08 09:06 69.68956 18.92300 30 ft 23 kts 10°
2026-05-08 09:06 69.69089 18.92252 29 ft 16 kts 314°
2026-05-08 09:06 69.69130 18.92291 28 ft 2 kts 113°
2026-05-08 09:07 69.69123 18.92300 28 ft 1 kts 147°
2026-05-08 09:07 69.69115 18.92314 28 ft 3 kts 147°
2026-05-08 09:07 69.69037 18.92354 28 ft 25 kts 185°
2026-05-08 09:07 69.68601 18.92062 32 ft 106 kts 193°
2026-05-08 09:08 69.67669 18.91398 157 ft 159 kts 194°
2026-05-08 09:08 69.66547 18.90593 847 ft 174 kts 195°
2026-05-08 09:08 69.65328 18.89643 1588 ft 186 kts 196°
2026-05-08 09:08 69.64001 18.88711 2034 ft 208 kts 193°
2026-05-08 09:09 69.62503 18.87782 2447 ft 232 kts 193°
2026-05-08 09:09 69.60862 18.86776 3108 ft 246 kts 193°
2026-05-08 09:09 69.59174 18.85726 4038 ft 250 kts 193°
2026-05-08 09:09 69.57476 18.84498 4977 ft 253 kts 203°
2026-05-08 09:10 69.55885 18.82264 5883 ft 256 kts 208°
2026-05-08 09:10 69.54290 18.79892 6778 ft 261 kts 209°
2026-05-08 09:10 69.52672 18.77474 7608 ft 264 kts 209°
2026-05-08 09:10 69.51037 18.75031 8445 ft 267 kts 209°
2026-05-08 09:11 69.49376 18.72562 9304 ft 271 kts 208°
2026-05-08 09:11 69.47698 18.70078 10124 ft 274 kts 209°
2026-05-08 09:11 69.45974 18.67522 10620 ft 289 kts 209°
2026-05-08 09:11 69.44121 18.64777 10847 ft 310 kts 208°
2026-05-08 09:12 69.42178 18.61907 11409 ft 318 kts 208°
2026-05-08 09:12 69.40197 18.58993 12130 ft 322 kts 208°
2026-05-08 09:12 69.38196 18.56066 12831 ft 326 kts 208°
2026-05-08 09:12 69.36169 18.53115 13535 ft 329 kts 208°
2026-05-08 09:13 69.34125 18.50143 14228 ft 332 kts 208°
2026-05-08 09:13 69.32054 18.47203 14891 ft 334 kts 206°
2026-05-08 09:13 69.29930 18.44438 15496 ft 338 kts 205°
2026-05-08 09:13 69.27764 18.41770 16107 ft 341 kts 204°
2026-05-08 09:14 69.25566 18.39118 16708 ft 345 kts 204°
2026-05-08 09:14 69.23348 18.36447 17331 ft 348 kts 204°
2026-05-08 09:14 69.21117 18.33743 17972 ft 351 kts 205°
2026-05-08 09:14 69.18871 18.31005 18607 ft 353 kts 205°
2026-05-08 09:15 69.16606 18.28235 19151 ft 357 kts 205°
2026-05-08 09:15 69.14321 18.25432 19686 ft 361 kts 205°
2026-05-08 09:15 69.12008 18.22594 20240 ft 364 kts 205°
2026-05-08 09:15 69.09676 18.19745 20797 ft 368 kts 205°
2026-05-08 09:16 69.07321 18.16877 21343 ft 371 kts 206°
2026-05-08 09:16 69.04943 18.13986 21865 ft 374 kts 206°
2026-05-08 09:16 69.02546 18.11075 22379 ft 378 kts 206°
2026-05-08 09:16 69.00124 18.08142 22903 ft 381 kts 206°
2026-05-08 09:17 68.97681 18.05193 23403 ft 384 kts 206°
2026-05-08 09:17 68.95216 18.02229 23877 ft 388 kts 206°
2026-05-08 09:17 68.92729 17.99250 24272 ft 391 kts 206°
2026-05-08 09:17 68.90256 17.96294 24616 ft 394 kts 209°
2026-05-08 09:18 68.87835 17.92771 24987 ft 394 kts 214°
2026-05-08 09:18 68.85439 17.89029 25391 ft 397 kts 214°
2026-05-08 09:18 68.83025 17.85271 25799 ft 399 kts 214°
2026-05-08 09:18 68.80596 17.81503 26184 ft 402 kts 214°
2026-05-08 09:19 68.78145 17.77718 26557 ft 405 kts 214°
2026-05-08 09:19 68.75676 17.73919 26926 ft 407 kts 214°
2026-05-08 09:19 68.73196 17.70110 27305 ft 410 kts 214°
2026-05-08 09:19 68.70699 17.66275 27681 ft 412 kts 214°
2026-05-08 09:20 68.68185 17.62423 28038 ft 415 kts 214°
2026-05-08 09:20 68.65652 17.58560 28388 ft 418 kts 214°
2026-05-08 09:20 68.63102 17.54690 28756 ft 420 kts 214°
2026-05-08 09:20 68.60538 17.50804 29092 ft 422 kts 215°
2026-05-08 09:21 68.57965 17.46915 29506 ft 423 kts 215°
2026-05-08 09:21 68.55382 17.43011 29901 ft 425 kts 215°
2026-05-08 09:22 68.39647 17.19489 31836 ft 432 kts 214°
2026-05-08 09:23 68.37007 17.15581 32202 ft 433 kts 214°
2026-05-08 09:23 68.34362 17.11673 32565 ft 433 kts 214°
2026-05-08 09:23 68.31712 17.07768 32894 ft 434 kts 214°
2026-05-08 09:23 68.29059 17.03866 33304 ft 434 kts 214°
2026-05-08 09:24 68.26406 16.99976 33675 ft 434 kts 213°
2026-05-08 09:24 68.23746 16.96087 34028 ft 435 kts 213°
2026-05-08 09:24 68.21081 16.92199 34365 ft 436 kts 213°
2026-05-08 09:24 68.18445 16.88362 34650 ft 437 kts 213°
2026-05-08 09:25 68.15771 16.84481 34952 ft 437 kts 213°
2026-05-08 09:25 68.13092 16.80613 35259 ft 437 kts 212°
2026-05-08 09:25 68.10413 16.76760 35541 ft 437 kts 212°
2026-05-08 09:25 68.07735 16.72910 35827 ft 437 kts 212°
2026-05-08 09:26 68.05055 16.69069 36107 ft 437 kts 212°
2026-05-08 09:26 68.02373 16.65228 36374 ft 437 kts 212°
2026-05-08 09:26 67.99695 16.61403 36651 ft 436 kts 212°
2026-05-08 09:26 67.97019 16.57595 36936 ft 436 kts 212°
2026-05-08 09:27 67.94344 16.53802 37186 ft 436 kts 212°
2026-05-08 09:27 67.91666 16.50014 37432 ft 436 kts 212°
2026-05-08 09:27 67.88979 16.46280 37672 ft 437 kts 208°
2026-05-08 09:27 67.86115 16.43438 37899 ft 442 kts 198°
2026-05-08 09:28 67.83102 16.41676 38113 ft 444 kts 195°
2026-05-08 09:28 67.80074 16.40018 38268 ft 445 kts 195°
2026-05-08 09:28 67.77024 16.38340 38305 ft 449 kts 195°
2026-05-08 09:29 67.70870 16.34950 38273 ft 453 kts 195°
2026-05-08 09:29 67.64686 16.31562 38298 ft 454 kts 195°
2026-05-08 09:30 67.58503 16.28188 38304 ft 454 kts 195°
2026-05-08 09:30 67.52313 16.24833 38305 ft 454 kts 195°
2026-05-08 09:31 67.46126 16.21509 38308 ft 454 kts 195°
2026-05-08 09:31 67.39930 16.18183 38313 ft 455 kts 195°
2026-05-08 09:32 67.33734 16.14859 38308 ft 454 kts 196°
2026-05-08 09:32 67.27543 16.11562 38329 ft 454 kts 196°
2026-05-08 09:33 67.21358 16.08319 38322 ft 453 kts 195°
2026-05-08 09:33 67.15176 16.05084 38325 ft 453 kts 195°
2026-05-08 09:34 67.09037 16.01884 38324 ft 453 kts 195°
2026-05-08 09:34 67.02860 15.98680 38322 ft 453 kts 195°
2026-05-08 09:35 66.96648 15.95476 38317 ft 452 kts 195°
2026-05-08 09:35 66.90475 15.92303 38318 ft 453 kts 195°
2026-05-08 09:36 66.84299 15.89143 38325 ft 453 kts 195°
2026-05-08 09:36 66.78160 15.85998 38325 ft 453 kts 195°
2026-05-08 09:37 66.71982 15.82868 38309 ft 452 kts 196°
2026-05-08 09:37 66.65812 15.79774 38330 ft 451 kts 196°
2026-05-08 09:38 66.59657 15.76707 38341 ft 451 kts 196°
2026-05-08 09:38 66.53512 15.73640 38339 ft 450 kts 196°
2026-05-08 09:39 66.47380 15.70585 38340 ft 449 kts 196°
2026-05-08 09:39 66.41254 15.67558 38305 ft 449 kts 196°
2026-05-08 09:40 66.35130 15.64565 38320 ft 448 kts 196°
2026-05-08 09:40 66.29011 15.61571 38323 ft 448 kts 196°
2026-05-08 09:41 66.23926 15.59097 38329 ft 448 kts 196°
2026-05-08 09:41 66.17808 15.56136 38330 ft 448 kts 196°
2026-05-08 09:42 66.11686 15.53193 38325 ft 448 kts 196°
2026-05-08 09:42 66.05565 15.50260 38284 ft 448 kts 196°
2026-05-08 09:43 65.99448 15.47336 38277 ft 448 kts 196°
2026-05-08 09:43 65.93334 15.44435 38260 ft 447 kts 196°
2026-05-08 09:44 65.87220 15.41550 38252 ft 448 kts 196°
2026-05-08 09:44 65.81101 15.38679 38247 ft 448 kts 196°
2026-05-08 09:45 65.74988 15.35822 38227 ft 447 kts 196°
2026-05-08 09:45 65.68885 15.32968 38243 ft 447 kts 195°
2026-05-08 09:46 65.62760 15.30301 38256 ft 447 kts 194°
2026-05-08 09:46 65.56613 15.27940 38264 ft 447 kts 194°
2026-05-08 09:47 65.50462 15.25647 38272 ft 447 kts 194°
2026-05-08 09:47 65.44320 15.23284 38247 ft 447 kts 194°
2026-05-08 09:48 65.38181 15.20891 38259 ft 447 kts 194°
2026-05-08 09:48 65.32033 15.18528 38265 ft 447 kts 194°
2026-05-08 09:49 65.25879 15.16174 38270 ft 448 kts 194°
2026-05-08 09:49 65.19727 15.13840 38272 ft 448 kts 194°
2026-05-08 09:50 65.13576 15.11518 38259 ft 447 kts 194°
2026-05-08 09:50 65.07435 15.09205 38269 ft 447 kts 194°
2026-05-08 09:51 65.01296 15.06891 38272 ft 446 kts 194°
2026-05-08 09:51 64.95163 15.04589 38273 ft 446 kts 194°
2026-05-08 09:52 64.89021 15.02315 38275 ft 447 kts 194°
2026-05-08 09:52 64.82884 15.00043 38239 ft 446 kts 194°
2026-05-08 09:53 64.76755 14.97794 38267 ft 445 kts 194°
2026-05-08 09:53 64.70641 14.95556 38268 ft 444 kts 194°
2026-05-08 09:54 64.64573 14.93337 38266 ft 444 kts 194°
2026-05-08 09:54 64.58434 14.91097 38263 ft 443 kts 194°
2026-05-08 09:55 64.52377 14.88913 38238 ft 443 kts 194°
2026-05-08 09:55 64.46288 14.86723 38256 ft 443 kts 194°
2026-05-08 09:56 64.40161 14.84522 38262 ft 442 kts 194°
2026-05-08 09:56 64.34119 14.82373 38262 ft 442 kts 194°
2026-05-08 09:57 64.25000 14.79127 38261 ft 442 kts 194°
2026-05-08 09:57 64.18923 14.76967 38244 ft 441 kts 194°
2026-05-08 09:58 64.12859 14.74842 38256 ft 441 kts 194°
2026-05-08 09:58 64.06796 14.72735 38261 ft 440 kts 194°
2026-05-08 09:59 64.00739 14.70633 38262 ft 440 kts 194°
2026-05-08 09:59 63.94689 14.68529 38262 ft 440 kts 194°
2026-05-08 10:00 63.88632 14.66439 38261 ft 440 kts 194°
2026-05-08 10:00 63.82577 14.64355 38262 ft 440 kts 194°
2026-05-08 10:01 63.76523 14.62280 38261 ft 440 kts 194°
2026-05-08 10:01 63.70472 14.60228 38259 ft 440 kts 194°
2026-05-08 10:02 63.64418 14.58177 38260 ft 440 kts 194°
2026-05-08 10:02 63.58365 14.56127 38237 ft 440 kts 194°
2026-05-08 10:03 63.52317 14.54087 38256 ft 439 kts 194°
2026-05-08 10:03 63.46274 14.52058 38266 ft 439 kts 194°
2026-05-08 10:04 63.40227 14.50060 38257 ft 439 kts 194°
2026-05-08 10:04 63.34183 14.48057 38258 ft 439 kts 194°
2026-05-08 10:05 63.28137 14.46051 38249 ft 439 kts 194°
2026-05-08 10:05 63.22101 14.44051 38235 ft 439 kts 194°
2026-05-08 10:06 63.16069 14.42065 38239 ft 438 kts 193°
2026-05-08 10:06 63.10041 14.40106 38241 ft 438 kts 193°
2026-05-08 10:07 63.04011 14.38153 38247 ft 438 kts 193°
2026-05-08 10:07 62.97988 14.36192 38228 ft 437 kts 193°
2026-05-08 10:08 62.92019 14.34268 38250 ft 436 kts 193°
2026-05-08 10:08 62.86016 14.32345 38260 ft 436 kts 193°
2026-05-08 10:09 62.80019 14.30425 38262 ft 435 kts 193°
2026-05-08 10:09 62.74019 14.28513 38264 ft 436 kts 193°
2026-05-08 10:10 62.68018 14.26605 38249 ft 435 kts 193°
2026-05-08 10:10 62.62036 14.24713 38267 ft 434 kts 193°
2026-05-08 10:11 62.56062 14.22843 38268 ft 434 kts 193°
2026-05-08 10:11 62.50090 14.20969 38266 ft 433 kts 193°
2026-05-08 10:12 62.44124 14.19105 38261 ft 433 kts 193°
2026-05-08 10:12 62.38161 14.17260 38254 ft 432 kts 192°
2026-05-08 10:13 62.32214 14.15435 38259 ft 431 kts 192°
2026-05-08 10:13 62.26271 14.13599 38256 ft 431 kts 192°
2026-05-08 10:14 62.20341 14.11766 38252 ft 430 kts 192°
2026-05-08 10:14 62.14411 14.09953 38249 ft 430 kts 192°
2026-05-08 10:15 62.08488 14.08146 38224 ft 430 kts 192°
2026-05-08 10:15 62.02567 14.06352 38240 ft 430 kts 192°